Etusivu
METAR-TAF:

METAR-TAF

Lentoasemat :

Gatesville Municipal Airport

Gatesville, Texas, Yhdysvallat

Leveyspiiri: 31-25-16N, Pituuspiiri: 097-47-49W, korkeus merenpinnasta: 276 m

Tämänhetkinen sää

Tämä raportti tehtiin 20 minuuttia sitten, kello 10.55 UTC
tyyntä
Lämpötila 20°C
Kosteus 94%
Ilmanpaine 1019 hPa
Näkyvyys: 16.1 km
selkeää

METAR: KGOP 181055Z AUTO 00000KT 10SM CLR 20/19 A3009 RMK AO2

Aika: 06:15 (11:15 UTC)


TAF: puuttuu

Säähavainnot ja -ennusteet yli 4000 lentoasemalta (METAR- ja TAF-raportit).

Käytössä olevat sääasemat on merkitty karttaan keltaisilla ja punaisilla pisteillä.

Aseta hiiri pisteen päälle nähdäksesi sääaseman nimen.

Klikkaa sitten nähdäksesi säähavainnot ja -ennusteet.

Kartan vaihtaminen: klikkaa mustalla rastilla varustettuja vihreitä pisteitä, niin voit zoomata sisään; viivalla varustettua vihreää pistettä, niin voit zoomata ulos tai vihreitä nuolia, niin pääset viereisille kartoille.


METAR-TAF: